Showing default

LANDSAT 1 (ERTS 1), 6126

Orbit data source: Space-Track

LANDSAT 1 (ERTS 1), 6126 is a payload satellite owned by GSFC (US) in SSO that was launched on Sun, 23 Jul 1972 UTC via a DELTA 0900 launch vehicle from the Air Force Western Test Range (AFWTR). Payload-class satellites include a variety of spacecraft equipped with specific instruments for various scientific and technological missions. These include communications satellites like Starlink; space stations such as the ISS; scientific satellites like the Hubble; Earth observation satellites from companies like Planet Labs, Umbra, and HawkEye 360; GPS; miniature CubeSats for education and research; and military/defense satellites.

Loading next visibility...
Identifier
6126, 1972-058A
Orbit
SSO
Country
Flag of USUS
Related business
Manufacturer
GE/MSVD
Mission
Non-operational Civil Imaging
Bus & Motor
NIMBUS, Unknown motor
Mass
891 kg wet, 891 kg dry
Launch date (UTC)
1972-07-23 (53 years ago)
Launch vehicle
DELTA 0900
Launch site
Air Force Western Test Range (AFWTR)
Object type
Payload
Rocket body
Debris
Shape & HBR
Cone + 2 Pan, 1.6 m
Radar Cross Section
2.170 m², Large (>1 m²)

Expand to show TLE details & history
Last TLE update: 7 hours ago

TLE from 7 hours ago
0 LANDSAT 1 (ERTS 1)
1 06126U 72058A   25259.60231043 -.00000181  00000-0 -94703-4 0  9998
2 06126  99.3649 279.3864 0007194 280.0765  79.9585 13.97801466709739
Epoch: 2025-09-16T14:27Z
TLE epoch observation values (Epoch: 2025-09-16T14:27:19.621Z)
Latitude
-0.00003°
Longitude
66.76439°
Altitude
903.371 km
Speed
7.401 km/s
True Right ascension
18h 37m 32s
True Declination
0° 00' 00"
Sunlit
Object was in daylight at epoch
Visualization orbit readout
Latitude
Unknown
Longitude
Unknown
Altitude
Unknown
Speed
Unknown
Apparent Right ascension
Unknown
Apparent Declination
Unknown
Sunlit
N/A
Visualization observer readout
Local Sidereal Time
14:30:58
Azimuth
Unknown
Elevation
Unknown
Doppler factor
Unknown
Orbital elements
Apogee altitude
903.874 km
Perigee altitude
893.404 km
Semi-major axis
7,276.776 km
Eccentricity
0.00072
Inclination
99.3649°
RAAN
279.3864°
Arg. of periapsis
280.0765°
True anomaly
80.03969°
Mean anomaly
79.9585°
Eccentric anomaly
79.99909°
Mean motion
3.49651 °/min
Orbital period
102.96 mins
BSTAR
-0.000094703
Loading maneuver chart data...
Computing Atmospheric mass density...

Documentation

Showing up to 5 results
|